カタログに戻る

JIELONG-3 R/B

運用中科学PO
NORAD 68690·ROCKET BODY·🇨🇳 China

打ち上げ Apr 11, 2026 から South China Sea Launch Area

Loading…

次のパス (今後24時間)

TLE

最新Source: Space-Track

元期: Sep 14, 2026, 23:13 UTC

1 68690U 26078C   26257.96739283  .00004540  00000-0  20474-3 0  9994
2 68690  86.6398 241.8948 0434668 208.2308 149.4725 14.63845801 22861

AllMySatでJIELONG-3 R/Bをリアルタイム追跡

Download on the App Store